Regional Weather Roundup
Issued by NWS Newport/Morehead, NC

Current Version | Previous Version | Graphics & Text | Print | Product List | Glossary Off
Versions: 1 2 3 4 5 6 7 8 9 10 11 12 13 14 15 16 17 18 19 20 21 22 23 24 25 26 27 28 29 30 31 32 33 34 35 36 37 38 39 40 41 42 43 44 45 46 47 48 49 50

000
ASUS42 KMHX 010225
RWRMHX
WEATHER ROUNDUP FOR EASTERN NORTH CAROLINA
NATIONAL WEATHER SERVICE NEWPORT/MOREHEAD CITY NC
1000 PM EDT FRI JUL 31 2015

NOTE: "FAIR" INDICATES FEW OR NO CLOUDS BELOW 12,000 FEET
WITH NO SIGNIFICANT WEATHER AND/OR OBSTRUCTIONS TO VISIBILITY

NCZ015>017-031-032-045>047-102-103-010300-
NORTH COAST

CITY           SKY/WX    TMP DP  RH WIND       PRES   REMARKS
EDENTON          N/A     76  65  66 SE3       29.94R
ELIZABETH CITY CLEAR     72  69  90 S5        29.94R
KITTY HAWK     CLEAR     74  61  63 CALM      29.93R
MANTEO         CLEAR     73  67  80 CALM      29.95R

$$

NCZ045>047-081-094-103-104-010300-
CENTRAL COAST

CITY           SKY/WX    TMP DP  RH WIND       PRES   REMARKS
FRISCO         MOCLDY    77  69  76 E3        29.94R
SWANQUARTER      N/A     77 N/A N/A E3        29.91S

$$

NCZ095-097-098-100-101-010300-
SOUTHERN COAST

CITY           SKY/WX    TMP DP  RH WIND       PRES   REMARKS
BEAUFORT       CLOUDY    78  74  87 W6        29.93R
CEDAR ISLAND     N/A     79 N/A N/A SW2G8     30.00R
JACKSONVILLE   MOCLDY    78  71  79 CALM      29.92S
PINEY ISLAND   MOCLDY   N/A N/A N/A SW3       29.94R
WILMINGTON     CLOUDY    77  75  93 E3        29.93R


$$

NCZ011>013-027>030-043-044-078>080-089-090>093-098-010300-
COASTAL PLAIN

CITY           SKY/WX    TMP DP  RH WIND       PRES   REMARKS
AHOSKIE        PTCLDY    74  68  83 CALM      29.95R
CLINTON        CLEAR     78  73  83 CALM      29.95R
ELIZABETHTOWN  PTCLDY    77  71  81 CALM      29.94S
GOLDSBORO      MOCLDY    81  70  69 S1        29.91R
GREENVILLE     MOCLDY    81  73  78 E5        29.96R
HAVELOCK       CLOUDY    76  73  91 SW3       29.95R
KENANSVILLE    CLEAR    N/A N/A N/A CALM      29.95R
KINSTON        NOT AVBL
NEW BERN       MOCLDY    79  73  82 SW5       29.94R
RICHLANDS      PTCLDY    75  68  78 CALM      29.93S
ROCKY MOUNT    PTCLDY    78  65  63 CALM      29.94R
WASHINGTON     PTCLDY    80  74  83 SE5       29.94R
WHITEVILLE     CLOUDY    75  72  92 CALM      29.93S

$$

AMZ130-135-150-152-154-156-158-170-250-252-270-ANZ085-086-088-633-658-670-010300-
MARINE OBSERVATIONS

STATION/POSITION TIME  TEMP    WIND        PRES    WAVE   SWELL
                       AIR SEA DIR/SP/G            HT/PER HT/PER
                 (UTC) (F)     (DEG/KT/KT) (MB)    (FT/S) (FT/S)
CHESAPEAKE LIGHT 0200   80     220/  3/  3 1014.0
64 E VA BEACH    0150   81 82  300/  6/  8 1012.8    3/ 8   3/ 8
DUCK             0200   79 80  170/  5/  5 1012.9
2 E DUCK         0111      80                N/A     3/ 5   2/11
OREGON INLET     0200   80 86  120/  3/  3 1013.8
13E OREGON INLT  0200      82                N/A     3/ 8
HATTERAS CG      0200   80 84   90/  4/  5 1013.7
DIAMOND BUOY     0150   81 85   10/  4/  6 1013.9    4/ 9   3/ 9
CAPE LOOKOUT     0200   79     270/  5/  6 1013.3
BEAUFORT LAB     0200   79 83  260/  1/  5 1012.6
30 SE NEW RVR IN NOT AVBL
27 SE WRIGHTSVLE 0200   79 83  250/ 12/ 16   N/A
5 SE WRIGHTSVLE  0108   81 83  290/  8/ 12 1012.7
225 S CAPE HAT   0150   82 81  240/ 17/ 21 1015.4    8/ 8
41 SE CHARLESTON 0150   83 84  210/ 14/ 16 1013.6    3/ 8   2/ 8

$$


USA.gov is the U.S. government's official web portal to all federal, state and local government web resources and services.